Tracking 19164 objects as of 21-May-2018
HD Live streaming from Space Station
objects crossing your sky now

ARIANE 5 R/B

Track ARIANE 5 R/B now!


NORAD ID: 39080
Int'l Code: 2013-006C
Perigee: 316.3 km
Apogee: 34,893.3 km
Inclination: 6.0 °
Period: 615.8 minutes
Semi major axis: 23975 km
RCS: 25.327 m2 (large)
Launch date: February 7, 2013
Source: France (FR)
Launch site: FRENCH GUIANA (FRGUI)

Note: This is a ROCKET BODY
aabbcc
Your satellite tracking list
Your tracking list is empty




NASA's NSSDC Master Catalog

Two Line Element Set (TLE):
1 39080U 13006C   18140.95665580  .00000086  00000-0  12719-3 0  9995
2 39080   6.0320 191.3190 7210799 345.5352   1.7727  2.33852866 44497
Source of the keplerian elements: AFSPC